Blattenbach Aussen Messungen

Zurück zum Überblick

Zeitpunkt Temperatur Temperatur Kabelsensor Luftfeuchte
22.01.2019 03:58:42 -1,5 C 2,6 C 77,0%
22.01.2019 03:51:42 -1,3 C 2,6 C 76,0%
22.01.2019 03:44:39 -1,1 C 2,6 C 76,0%
22.01.2019 03:37:41 -0,7 C 2,7 C 76,0%
22.01.2019 03:30:41 -0,3 C 2,7 C 75,0%
22.01.2019 03:23:40 0,0 C 2,7 C 75,0%
22.01.2019 03:16:44 0,0 C 2,7 C 75,0%
22.01.2019 03:09:41 0,2 C 2,7 C 75,0%
22.01.2019 03:02:42 0,2 C 2,7 C 75,0%
22.01.2019 02:55:40 0,3 C 2,7 C 75,0%
22.01.2019 02:48:43 0,2 C 2,7 C 75,0%
22.01.2019 02:41:40 0,2 C 2,7 C 75,0%
22.01.2019 02:34:42 0,2 C 2,7 C 75,0%
22.01.2019 02:27:39 0,4 C 2,7 C 74,0%
22.01.2019 02:20:43 0,5 C 2,7 C 75,0%
22.01.2019 02:13:43 0,5 C 2,7 C 75,0%
22.01.2019 02:06:40 0,6 C 2,7 C 75,0%
22.01.2019 01:59:42 0,6 C 2,7 C 74,0%
22.01.2019 01:52:40 0,6 C 2,7 C 74,0%
22.01.2019 01:45:27 0,6 C 2,7 C 75,0%
22.01.2019 01:38:27 0,5 C 2,7 C 74,0%
22.01.2019 01:31:26 0,6 C 2,7 C 75,0%
22.01.2019 01:24:25 0,7 C 2,7 C 75,0%
22.01.2019 01:17:25 0,7 C 2,7 C 75,0%
22.01.2019 01:10:25 0,7 C 2,7 C 75,0%
22.01.2019 01:03:25 0,6 C 2,6 C 75,0%
22.01.2019 00:56:26 0,5 C 2,6 C 75,0%
22.01.2019 00:49:26 0,6 C 2,7 C 75,0%
22.01.2019 00:42:28 0,5 C 2,7 C 75,0%
22.01.2019 00:35:25 0,6 C 2,7 C 75,0%
22.01.2019 00:28:29 0,7 C 2,7 C 75,0%
22.01.2019 00:21:25 0,7 C 2,7 C 75,0%
22.01.2019 00:14:26 0,6 C 2,7 C 75,0%
22.01.2019 00:07:28 0,5 C 2,7 C 75,0%
22.01.2019 00:00:26 0,5 C 2,7 C 76,0%
21.01.2019 23:53:27 0,3 C 2,7 C 76,0%
21.01.2019 23:46:24 0,3 C 2,7 C 76,0%
21.01.2019 23:39:24 0,4 C 2,7 C 76,0%
21.01.2019 23:32:25 0,5 C 2,7 C 75,0%
21.01.2019 23:25:28 0,6 C 2,7 C 76,0%
21.01.2019 23:18:27 0,4 C 2,7 C 76,0%
21.01.2019 23:11:24 0,4 C 2,7 C 76,0%
21.01.2019 23:04:26 0,5 C 2,7 C 76,0%
21.01.2019 22:57:24 0,6 C 2,7 C 76,0%
21.01.2019 22:50:26 0,6 C 2,7 C 76,0%
21.01.2019 22:43:28 0,5 C 2,7 C 76,0%
21.01.2019 22:36:25 0,5 C 2,7 C 76,0%
21.01.2019 22:29:28 0,5 C 2,7 C 76,0%
21.01.2019 22:22:24 0,6 C 2,7 C 76,0%
21.01.2019 22:15:28 0,5 C 2,7 C 76,0%